Location: Crescent
(42.8242°N, 73.7329°W)
Time: 03:17:03
(UTC+00:00)

Transit 4A - Pass Details

Date: 21 February 2026
Orbit: 864 x 977 km, 66.8° (Epoch: 7 March)

Event Time Altitude Azimuth Distance (km) Brightness Sun altitude
Rises 14:59:12 0° 335° (NNW) 3,597 10.4 29.1°
Reaches altitude 10° 15:02:20 10° 350° (N) 2,670 9.9 29.5°
Maximum altitude 15:07:09 23° 41° (NE) 1,933 9.6 30.0°
Drops below altitude 10° 15:12:01 10° 91° (E) 2,709 10.9 30.5°
Sets 15:15:12 0° 106° (ESE) 3,662 11.7 30.8°
